This demonstration page uses our WeatherBlox Daily Observations layout. Learn more.

41.55636, -103.73856

Hourly Observations for August 11, 2019

Temp ( °F °C ) Dew Point ( °F °C ) Humidity (%) Winds ( mph kmh ) Pressure ( in mb ) Visibility ( mi km ) Precip ( " mm )
12:00 am 00:00 Partly Cloudy 70 21.1 62 16.7 76 76 ESE 8 13 29.85 1011 10 16.09344 0 0
12:53 am 00:53 Clear 66 18.9 62 16.7 87 87 ESE 6 9 29.91 1013 10 16.09344 0 0
1:53 am 01:53 Clear 63 17.2 61 16.1 93 93 E 5 7 29.88 1012 10 16.09344 0 0
2:53 am 02:53 Clear 63 17.2 61 16.1 93 93 E 5 7 29.88 1012 10 16.09344 0 0
3:53 am 03:53 Clear 63 17.2 61 16.1 93 93 NE 3 6 29.88 1012 10 16.09344 0 0
4:53 am 04:53 Clear 65 18.3 63 17.2 93 93 ENE 7 11 29.91 1013 10 16.09344 0 0
5:53 am 05:53 Clear 63 17.2 62 16.7 97 97 NE 3 6 29.88 1012 10 16.09344 0 0
6:29 am 06:29 Mostly Cloudy 64 17.8 63 17.2 96 96 Calm 29.91 1013 10 16.09344 0 0
6:53 am 06:53 Cloudy 66 18.9 64 17.8 93 93 Calm 29.91 1013 10 16.09344 0 0
7:53 am 07:53 Cloudy 68 20 65 18.3 90 90 SE 6 9 29.91 1013 10 16.09344 0 0
8:53 am 08:53 Mostly Cloudy 73 22.8 66 18.9 79 79 SSE 8 13 29.91 1013 10 16.09344 0 0
9:53 am 09:53 Mostly Cloudy 76 24.4 65 18.3 69 69 E 7 11 29.91 1013 10 16.09344 0 0
10:53 am 10:53 Partly Cloudy 79 26.1 65 18.3 62 62 E 5 7 29.91 1013 10 16.09344 0 0
11:53 am 11:53 Sunny 79 26.1 66 18.9 65 65 ESE 9 15 29.88 1012 10 16.09344 0 0
12:53 pm 12:53 Sunny 80 26.7 66 18.9 62 62 ESE 7 11 29.88 1012 10 16.09344 0 0
1:53 pm 13:53 Sunny 85 29.4 66 18.9 53 53 ESE 16 26 29.85 1011 10 16.09344 0 0
2:53 pm 14:53 Sunny 85 29.4 66 18.9 53 53 SE 17 28 29.83 1010 10 16.09344 0 0
3:53 pm 15:53 Sunny 78 25.6 67 19.4 69 69 SE 14 22 29.85 1011 10 16.09344 0 0
4:51 pm 16:51 Cloudy with Nearby Thunderstorms 73 23 70 21 89 89 SSW 8 13 29.77 1008 4 6.437376 0.01 0.254
4:53 pm 16:53 Cloudy with Nearby Thunderstorms 73 22.8 70 21.1 90 90 SW 9 15 29.85 1011 4 6.437376 0.02 0.508
5:03 pm 17:03 Cloudy with Thunderstorms 72 22.2 69 20.6 91 91 SW 18 30 29.77 1008 2 3.218688 0.02 0.508
5:08 pm 17:08 Cloudy with Heavy Thunderstorms 70 21 66 19 88 88 SW 22 35 29.8 1009 0.75 1.207008 0 0
5:24 pm 17:24 Cloudy with Thunderstorms 68 20 64 18 88 88 SW 14 22 29.77 1008 2 3.218688 0 0
5:28 pm 17:28 Cloudy with Light Thunderstorms 68 20 64 18 88 88 SSW 17 28 29.77 1008 4 6.437376 0 0
5:37 pm 17:37 Cloudy with Light Thunderstorms 69 20.6 65 18.3 87 87 SW 17 28 29.77 1008 10 16.09344 0.45 11.43
5:53 pm 17:53 Cloudy with Nearby Thunderstorms 67 19.4 64 17.8 91 91 S 14 22 29.85 1011 8 12.874752 0.45 11.43
6:11 pm 18:11 Cloudy with Light Rain 67 19.4 64 17.8 91 91 ESE 15 24 29.74 1007 7 11.265408 0.04 1.016
6:19 pm 18:19 Cloudy with Light Rain 68 20 64 17.8 87 87 ESE 13 20 29.74 1007 10 16.09344 0.05 1.27
6:53 pm 18:53 Sunny 70 21.1 65 18.3 84 84 NE 5 7 29.77 1008 10 16.09344 0.05 1.27
7:53 pm 19:53 Sunny 68 20 65 18.3 90 90 Calm 29.83 1010 10 16.09344 0 0
8:53 pm 20:53 Clear 67 19.4 64 17.8 91 91 E 6 9 29.83 1010 10 16.09344 0 0
9:53 pm 21:53 Clear 66 18.9 64 17.8 93 93 ESE 8 13 29.85 1011 10 16.09344 0 0
10:43 pm 22:43 Mostly Cloudy 66 18.9 64 17.8 93 93 ESE 6 9 29.83 1010 10 16.09344 0 0
10:53 pm 22:53 Mostly Cloudy 66 18.9 64 17.8 93 93 SE 6 9 29.83 1010 10 16.09344 0 0
11:17 pm 23:17 Partly Cloudy 65 18.3 64 17.8 97 97 ESE 5 7 29.8 1009 10 16.09344 0 0
11:24 pm 23:24 Mostly Cloudy 64 18 64 18 100 100 Calm 29.8 1009 10 16.09344 0 0
11:53 pm 23:53 Partly Cloudy 65 18.3 64 17.8 97 97 ESE 6 9 29.83 1010 10 16.09344 0 0

Powered by AerisWeather